Location: *
(45.9500°N, 9.0833°E)
Time: 19:42:39
(UTC+00:00)

Vanguard 2 Rocket - Pass Details

Date: 18 June 2021
Orbit: 555 x 3325 km, 32.9° (Epoch: 30 July)

Event Time Altitude Azimuth Distance (km) Brightness Sun altitude
Rises 16:21:13 0° 198° (SSW) 7,101 11.6 27.4°
Reaches altitude 10° 16:27:36 10° 186° (S) 6,240 11.2 26.3°
Maximum altitude 16:41:06 23° 143° (SE) 5,113 10.5 24.0°
Drops below altitude 10° 16:53:05 10° 100° (E) 5,562 10.4 22.0°
Sets 16:58:10 0° 88° (E) 6,192 10.6 21.1°
